Time,TemperatureF,DewpointF,PressureIn,WindDirection,WindDirectionDegrees,WindSpeedMPH,WindSpeedGustMPH,Humidity,HourlyPrecipIn,Conditions,Clouds,dailyrainin,SoftwareType,DateUTC
2013-03-26 00:00:00,18.6,7.4,30.25,North,6,0.0,3.0,61,0.00,,,0.10,Wunderground v.1.15,2013-03-26 06:00:00,
2013-03-26 00:06:00,18.9,8.0,30.24,North,6,0.0,3.0,62,0.00,,,0.10,Wunderground v.1.15,2013-03-26 06:06:00,
2013-03-26 00:15:00,19.1,8.2,30.24,North,6,0.0,3.0,62,0.00,,,0.10,Wunderground v.1.15,2013-03-26 06:15:00,
2013-03-26 00:20:00,19.1,8.2,30.24,North,6,0.0,3.0,62,0.00,,,0.10,Wunderground v.1.15,2013-03-26 06:20:00,
2013-03-26 00:25:00,19.1,8.2,30.24,North,6,0.0,3.0,62,0.00,,,0.10,Wunderground v.1.15,2013-03-26 06:25:00,
2013-03-26 00:35:00,19.1,8.2,30.21,North,6,0.0,3.0,62,0.00,,,0.10,Wunderground v.1.15,2013-03-26 06:35:00,
2013-03-26 00:40:00,18.9,8.0,30.21,North,6,0.0,3.0,62,0.00,,,0.10,Wunderground v.1.15,2013-03-26 06:40:00,
2013-03-26 00:45:00,18.8,7.9,30.21,North,6,0.0,3.0,62,0.00,,,0.10,Wunderground v.1.15,2013-03-26 06:45:00,
2013-03-26 00:50:00,18.6,7.4,30.21,North,6,0.0,3.0,61,0.00,,,0.10,Wunderground v.1.15,2013-03-26 06:50:00,
2013-03-26 01:00:00,18.1,7.3,30.21,North,6,0.0,3.0,62,0.00,,,0.10,Wunderground v.1.15,2013-03-26 07:00:00,
2013-03-26 01:06:00,17.8,7.0,30.22,North,6,0.0,3.0,62,0.00,,,0.10,Wunderground v.1.15,2013-03-26 07:06:00,
2013-03-26 01:15:00,17.5,7.0,30.22,North,6,0.0,3.0,63,0.00,,,0.10,Wunderground v.1.15,2013-03-26 07:15:00,
2013-03-26 01:20:00,17.3,6.8,30.21,North,6,0.0,3.0,63,0.00,,,0.00,Wunderground v.1.15,2013-03-26 07:20:00,
2013-03-26 01:25:00,17.2,7.1,30.21,North,6,0.0,3.0,64,0.00,,,0.00,Wunderground v.1.15,2013-03-26 07:25:00,
2013-03-26 01:30:00,17.2,7.1,30.21,North,6,0.0,3.0,64,0.00,,,0.00,Wunderground v.1.15,2013-03-26 07:30:00,
2013-03-26 01:40:00,17.2,7.4,30.22,North,6,0.0,3.0,65,0.00,,,0.00,Wunderground v.1.15,2013-03-26 07:40:00,
2013-03-26 01:45:00,17.2,7.8,30.22,North,6,0.0,3.0,66,0.00,,,0.00,Wunderground v.1.15,2013-03-26 07:45:00,
2013-03-26 01:50:00,17.2,7.8,30.22,North,6,0.0,3.0,66,0.00,,,0.00,Wunderground v.1.15,2013-03-26 07:50:00,
2013-03-26 01:55:00,17.2,7.4,30.22,North,6,0.0,3.0,65,0.00,,,0.00,Wunderground v.1.15,2013-03-26 07:55:00,
2013-03-26 02:05:00,16.9,7.2,30.21,North,6,0.0,3.0,65,0.00,,,0.00,Wunderground v.1.15,2013-03-26 08:05:00,
2013-03-26 02:15:00,16.5,7.1,30.21,North,6,0.0,3.0,66,0.00,,,0.00,Wunderground v.1.15,2013-03-26 08:15:00,
2013-03-26 02:20:00,16.5,7.1,30.21,North,6,0.0,3.0,66,0.00,,,0.00,Wunderground v.1.15,2013-03-26 08:20:00,
2013-03-26 02:25:00,16.4,7.0,30.21,North,6,0.0,3.0,66,0.00,,,0.00,Wunderground v.1.15,2013-03-26 08:25:00,
2013-03-26 02:30:00,16.2,6.8,30.21,North,6,0.0,3.0,66,0.00,,,0.00,Wunderground v.1.15,2013-03-26 08:30:00,
2013-03-26 02:35:00,16.1,6.7,30.21,North,6,0.0,3.0,66,0.00,,,0.00,Wunderground v.1.15,2013-03-26 08:35:00,
2013-03-26 02:45:00,15.9,6.9,30.21,North,6,0.0,3.0,67,0.00,,,0.00,Wunderground v.1.15,2013-03-26 08:45:00,
2013-03-26 02:50:00,15.7,6.7,30.21,North,6,0.0,3.0,67,0.00,,,0.00,Wunderground v.1.15,2013-03-26 08:50:00,
2013-03-26 02:55:00,15.6,6.6,30.21,North,6,0.0,3.0,67,0.00,,,0.00,Wunderground v.1.15,2013-03-26 08:55:00,
2013-03-26 03:00:00,15.4,6.4,30.21,North,6,0.0,3.0,67,0.00,,,0.00,Wunderground v.1.15,2013-03-26 09:00:00,
2013-03-26 03:06:00,15.2,6.2,30.21,North,6,0.0,3.0,67,0.00,,,0.00,Wunderground v.1.15,2013-03-26 09:06:00,
2013-03-26 03:15:00,14.9,5.9,30.21,North,6,0.0,3.0,67,0.00,,,0.00,Wunderground v.1.15,2013-03-26 09:15:00,
2013-03-26 03:20:00,14.9,5.9,30.20,North,6,0.0,3.0,67,0.00,,,0.00,Wunderground v.1.15,2013-03-26 09:20:00,
2013-03-26 03:25:00,14.8,5.8,30.20,North,6,0.0,3.0,67,0.00,,,0.00,Wunderground v.1.15,2013-03-26 09:25:00,
2013-03-26 03:30:00,14.6,5.6,30.20,North,6,0.0,3.0,67,0.00,,,0.00,Wunderground v.1.15,2013-03-26 09:30:00,
2013-03-26 03:35:00,14.4,5.8,30.19,North,6,0.0,3.0,68,0.00,,,0.00,Wunderground v.1.15,2013-03-26 09:35:00,
2013-03-26 03:45:00,14.3,5.7,30.19,North,6,0.0,3.0,68,0.00,,,0.00,Wunderground v.1.15,2013-03-26 09:45:00,
2013-03-26 03:50:00,14.3,6.0,30.19,North,6,0.0,3.0,69,0.00,,,0.00,Wunderground v.1.15,2013-03-26 09:50:00,
2013-03-26 03:55:00,14.1,5.8,30.19,North,6,0.0,3.0,69,0.00,,,0.00,Wunderground v.1.15,2013-03-26 09:55:00,
2013-03-26 04:00:00,14.1,5.8,30.19,North,6,0.0,3.0,69,0.00,,,0.00,Wunderground v.1.15,2013-03-26 10:00:00,
2013-03-26 04:06:00,14.0,5.7,30.19,North,6,0.0,3.0,69,0.00,,,0.00,Wunderground v.1.15,2013-03-26 10:06:00,
2013-03-26 04:15:00,14.0,6.0,30.19,North,6,0.0,3.0,70,0.00,,,0.00,Wunderground v.1.15,2013-03-26 10:15:00,
2013-03-26 04:20:00,13.8,5.8,30.18,North,6,0.0,3.0,70,0.00,,,0.00,Wunderground v.1.15,2013-03-26 10:20:00,
2013-03-26 04:40:00,14.1,6.7,30.16,North,6,0.0,3.0,72,0.00,,,0.00,Wunderground v.1.15,2013-03-26 10:40:00,
2013-03-26 04:45:00,14.1,6.7,30.16,North,6,0.0,3.0,72,0.00,,,0.00,Wunderground v.1.15,2013-03-26 10:45:00,
2013-03-26 04:50:00,14.1,6.7,30.16,North,6,0.0,3.0,72,0.00,,,0.00,Wunderground v.1.15,2013-03-26 10:50:00,
2013-03-26 05:00:00,14.0,6.6,30.16,North,6,0.0,3.0,72,0.00,,,0.00,Wunderground v.1.15,2013-03-26 11:00:00,
2013-03-26 05:06:00,14.0,6.6,30.16,North,6,0.0,3.0,72,0.00,,,0.00,Wunderground v.1.15,2013-03-26 11:06:00,
2013-03-26 05:15:00,14.1,7.0,30.16,North,6,0.0,3.0,73,0.00,,,0.00,Wunderground v.1.15,2013-03-26 11:15:00,
2013-03-26 05:20:00,14.1,7.0,30.16,North,6,0.0,3.0,73,0.00,,,0.00,Wunderground v.1.15,2013-03-26 11:20:00,
2013-03-26 05:25:00,14.1,7.0,30.16,North,6,0.0,3.0,73,0.00,,,0.00,Wunderground v.1.15,2013-03-26 11:25:00,
2013-03-26 05:35:00,14.4,7.6,30.14,North,6,0.0,3.0,74,0.00,,,0.00,Wunderground v.1.15,2013-03-26 11:35:00,
2013-03-26 05:40:00,14.6,7.8,30.14,North,6,0.0,3.0,74,0.00,,,0.00,Wunderground v.1.15,2013-03-26 11:40:00,
2013-03-26 05:45:00,14.6,7.8,30.14,North,6,0.0,3.0,74,0.00,,,0.00,Wunderground v.1.15,2013-03-26 11:45:00,
2013-03-26 05:55:00,14.8,8.0,30.12,North,6,0.0,3.0,74,0.00,,,0.00,Wunderground v.1.15,2013-03-26 11:55:00,
2013-03-26 06:00:00,14.9,8.1,30.12,North,6,0.0,3.0,74,0.00,,,0.00,Wunderground v.1.15,2013-03-26 12:00:00,
2013-03-26 06:06:00,15.1,8.6,30.12,North,6,0.0,3.0,75,0.00,,,0.00,Wunderground v.1.15,2013-03-26 12:06:00,
2013-03-26 06:15:00,15.9,9.4,30.12,North,6,0.0,3.0,75,0.00,,,0.00,Wunderground v.1.15,2013-03-26 12:15:00,
2013-03-26 06:20:00,16.1,9.6,30.12,North,6,0.0,3.0,75,0.00,,,0.00,Wunderground v.1.15,2013-03-26 12:20:00,
2013-03-26 06:25:00,16.1,9.6,30.12,North,6,0.0,3.0,75,0.00,,,0.00,Wunderground v.1.15,2013-03-26 12:25:00,
2013-03-26 06:30:00,16.2,9.7,30.12,North,6,0.0,3.0,75,0.00,,,0.00,Wunderground v.1.15,2013-03-26 12:30:00,
2013-03-26 06:40:00,16.5,10.0,30.16,North,6,0.0,3.0,75,0.00,,,0.00,Wunderground v.1.15,2013-03-26 12:40:00,
2013-03-26 06:45:00,16.9,10.3,30.16,North,6,0.0,3.0,75,0.00,,,0.00,Wunderground v.1.15,2013-03-26 12:45:00,
2013-03-26 06:50:00,17.2,10.6,30.16,North,6,0.0,3.0,75,0.00,,,0.00,Wunderground v.1.15,2013-03-26 12:50:00,
2013-03-26 07:00:00,17.7,10.8,30.16,North,6,0.0,3.0,74,0.00,,,0.00,Wunderground v.1.15,2013-03-26 13:00:00,
2013-03-26 07:05:00,17.8,10.6,30.14,North,6,0.0,3.0,73,0.00,,,0.00,Wunderground v.1.15,2013-03-26 13:05:00,
2013-03-26 07:15:00,18.0,10.8,30.14,North,6,0.0,3.0,73,0.00,,,0.00,Wunderground v.1.15,2013-03-26 13:15:00,
2013-03-26 07:20:00,18.1,11.2,30.14,North,6,0.0,3.0,74,0.00,,,0.00,Wunderground v.1.15,2013-03-26 13:20:00,
2013-03-26 07:25:00,18.3,11.1,30.14,North,6,0.0,3.0,73,0.00,,,0.00,Wunderground v.1.15,2013-03-26 13:25:00,
2013-03-26 07:30:00,18.6,11.7,30.14,North,6,0.0,3.0,74,0.00,,,0.00,Wunderground v.1.15,2013-03-26 13:30:00,
2013-03-26 07:40:00,19.4,12.2,30.17,North,6,0.0,3.0,73,0.00,,,0.00,Wunderground v.1.15,2013-03-26 13:40:00,
2013-03-26 07:45:00,20.0,13.0,30.17,North,6,0.0,3.0,74,0.00,,,0.00,Wunderground v.1.15,2013-03-26 13:45:00,
2013-03-26 07:50:00,20.6,13.0,30.15,North,6,0.0,3.0,72,0.00,,,0.00,Wunderground v.1.15,2013-03-26 13:50:00,
2013-03-26 07:55:00,21.3,13.7,30.15,North,6,0.0,3.0,72,0.00,,,0.00,Wunderground v.1.15,2013-03-26 13:55:00,
2013-03-26 08:00:00,21.8,14.2,30.15,North,6,0.0,3.0,72,0.00,,,0.00,Wunderground v.1.15,2013-03-26 14:00:00,
2013-03-26 08:05:00,22.7,15.0,30.14,North,6,0.0,3.0,72,0.00,,,0.00,Wunderground v.1.15,2013-03-26 14:05:00,
2013-03-26 08:15:00,23.9,15.2,30.14,North,6,0.0,3.0,69,0.00,,,0.00,Wunderground v.1.15,2013-03-26 14:15:00,
2013-03-26 08:20:00,24.4,15.7,30.12,North,6,0.0,3.0,69,0.00,,,0.00,Wunderground v.1.15,2013-03-26 14:20:00,
2013-03-26 08:25:00,25.0,15.2,30.12,North,6,0.0,3.0,66,0.00,,,0.00,Wunderground v.1.15,2013-03-26 14:25:00,
2013-03-26 08:30:00,25.4,15.6,30.12,North,6,0.0,3.0,66,0.00,,,0.00,Wunderground v.1.15,2013-03-26 14:30:00,
2013-03-26 08:35:00,25.7,15.9,30.12,North,6,0.0,3.0,66,0.00,,,0.00,Wunderground v.1.15,2013-03-26 14:35:00,
2013-03-26 08:40:00,26.3,15.8,30.12,North,6,0.0,3.0,64,0.00,,,0.00,Wunderground v.1.15,2013-03-26 14:40:00,
2013-03-26 08:50:00,28.2,16.5,30.11,North,6,0.0,3.0,61,0.00,,,0.00,Wunderground v.1.15,2013-03-26 14:50:00,
2013-03-26 08:55:00,29.3,16.3,30.11,North,4,0.0,3.0,58,0.00,,,0.00,Wunderground v.1.15,2013-03-26 14:55:00,
2013-03-26 09:00:00,30.3,16.0,30.11,NNE,13,0.0,3.0,55,0.00,,,0.01,Wunderground v.1.15,2013-03-26 15:00:00,
2013-03-26 09:06:00,31.2,15.6,30.10,NNE,13,0.0,3.0,52,0.00,,,0.01,Wunderground v.1.15,2013-03-26 15:06:00,
2013-03-26 09:15:00,32.1,14.1,30.10,NNE,13,0.0,3.0,47,0.00,,,0.01,Wunderground v.1.15,2013-03-26 15:15:00,
2013-03-26 09:20:00,32.5,14.5,30.08,NNE,13,0.0,3.0,47,0.00,,,0.01,Wunderground v.1.15,2013-03-26 15:20:00,
2013-03-26 09:25:00,33.2,14.6,30.08,NNE,13,0.0,3.0,46,0.00,,,0.01,Wunderground v.1.15,2013-03-26 15:25:00,
2013-03-26 09:30:00,34.3,14.1,30.08,NNE,13,0.0,3.0,43,0.00,,,0.01,Wunderground v.1.15,2013-03-26 15:30:00,
2013-03-26 09:35:00,35.2,14.4,30.08,NNE,13,0.0,3.0,42,0.00,,,0.01,Wunderground v.1.15,2013-03-26 15:35:00,
2013-03-26 09:40:00,36.2,15.3,30.08,NNE,14,0.0,3.0,42,0.00,,,0.01,Wunderground v.1.15,2013-03-26 15:40:00,
2013-03-26 09:50:00,38.0,16.4,30.06,ESE,112,0.0,3.0,41,0.00,,,0.01,Wunderground v.1.15,2013-03-26 15:50:00,
2013-03-26 09:55:00,38.9,17.2,30.06,ESE,112,0.0,3.0,41,0.00,,,0.01,Wunderground v.1.15,2013-03-26 15:55:00,
2013-03-26 10:00:00,39.5,18.3,30.06,ESE,112,0.0,3.0,42,0.00,,,0.01,Wunderground v.1.15,2013-03-26 16:00:00,
2013-03-26 10:06:00,40.1,17.7,30.04,ESE,112,0.0,3.0,40,0.00,,,0.01,Wunderground v.1.15,2013-03-26 16:06:00,
2013-03-26 10:15:00,41.2,18.1,30.04,SSE,162,0.0,3.0,39,0.00,,,0.01,Wunderground v.1.15,2013-03-26 16:15:00,
2013-03-26 10:20:00,41.3,14.3,30.02,SSE,162,0.0,3.0,33,0.00,,,0.01,Wunderground v.1.15,2013-03-26 16:20:00,
2013-03-26 10:25:00,41.5,13.8,30.02,South,185,0.0,3.0,32,0.00,,,0.01,Wunderground v.1.15,2013-03-26 16:25:00,
2013-03-26 13:30:00,56.5,20.1,29.89,North,353,0.0,3.0,24,0.00,,,0.01,Wunderground v.1.15,2013-03-26 19:30:00,
2013-03-26 13:35:00,56.3,18.9,29.86,NNE,14,0.0,3.0,23,0.00,,,0.01,Wunderground v.1.15,2013-03-26 19:35:00,
2013-03-26 13:40:00,56.2,17.8,29.86,NNW,347,0.0,3.0,22,0.00,,,0.01,Wunderground v.1.15,2013-03-26 19:40:00,
2013-03-26 13:45:00,55.9,18.6,29.86,NNE,17,0.0,3.0,23,0.00,,,0.01,Wunderground v.1.15,2013-03-26 19:45:00,
2013-03-26 13:50:00,55.7,18.4,29.87,North,6,0.0,3.0,23,0.00,,,0.01,Wunderground v.1.15,2013-03-26 19:50:00,
2013-03-26 14:00:00,55.3,18.1,29.87,NNE,28,0.0,3.0,23,0.00,,,0.01,Wunderground v.1.15,2013-03-26 20:00:00,
2013-03-26 14:06:00,55.3,18.1,29.87,NNE,13,0.0,3.0,23,0.00,,,0.01,Wunderground v.1.15,2013-03-26 20:06:00,
2013-03-26 14:15:00,55.6,18.3,29.87,North,0,0.0,3.0,23,0.00,,,0.01,Wunderground v.1.15,2013-03-26 20:15:00,
2013-03-26 14:20:00,55.4,19.2,29.86,NW,316,0.0,3.0,24,0.00,,,0.01,Wunderground v.1.15,2013-03-26 20:20:00,
2013-03-26 14:25:00,55.3,19.1,29.86,NNW,328,0.0,3.0,24,0.00,,,0.01,Wunderground v.1.15,2013-03-26 20:25:00,
2013-03-26 14:30:00,55.3,19.1,29.86,NNW,337,0.0,3.0,24,0.00,,,0.01,Wunderground v.1.15,2013-03-26 20:30:00,
2013-03-26 14:40:00,55.1,18.9,29.87,NNW,337,0.0,3.0,24,0.00,,,0.01,Wunderground v.1.15,2013-03-26 20:40:00,
2013-03-26 14:45:00,55.1,18.9,29.87,NNE,27,0.0,3.0,24,0.00,,,0.01,Wunderground v.1.15,2013-03-26 20:45:00,
2013-03-26 14:50:00,55.0,18.8,29.87,North,10,0.0,3.0,24,0.00,,,0.01,Wunderground v.1.15,2013-03-26 20:50:00,
2013-03-26 14:55:00,54.8,18.6,29.87,North,357,0.0,3.0,24,0.00,,,0.01,Wunderground v.1.15,2013-03-26 20:55:00,
2013-03-26 15:00:00,54.7,19.5,29.87,NE,38,0.0,3.0,25,0.00,,,0.01,Wunderground v.1.15,2013-03-26 21:00:00,
2013-03-26 15:05:00,54.7,17.6,29.86,North,11,0.0,3.0,23,0.00,,,0.01,Wunderground v.1.15,2013-03-26 21:05:00,
2013-03-26 15:15:00,54.7,18.6,29.86,WNW,295,0.0,3.0,24,0.00,,,0.01,Wunderground v.1.15,2013-03-26 21:15:00,
2013-03-26 15:20:00,54.7,18.6,29.86,ENE,69,0.0,3.0,24,0.00,,,0.01,Wunderground v.1.15,2013-03-26 21:20:00,
2013-03-26 15:25:00,54.7,18.6,29.86,North,353,0.0,3.0,24,0.00,,,0.01,Wunderground v.1.15,2013-03-26 21:25:00,
2013-03-26 15:30:00,54.7,19.5,29.86,North,350,0.0,3.0,25,0.00,,,0.01,Wunderground v.1.15,2013-03-26 21:30:00,
2013-03-26 15:35:00,54.5,19.3,29.87,North,359,0.0,3.0,25,0.00,,,0.01,Wunderground v.1.15,2013-03-26 21:35:00,
2013-03-26 15:45:00,54.5,19.3,29.87,North,0,0.0,3.0,25,0.00,,,0.01,Wunderground v.1.15,2013-03-26 21:45:00,
2013-03-26 15:50:00,54.5,20.3,29.86,NNE,28,0.0,3.0,26,0.00,,,0.01,Wunderground v.1.15,2013-03-26 21:50:00,
2013-03-26 15:55:00,54.5,20.3,29.86,East,80,0.0,3.0,26,0.00,,,0.01,Wunderground v.1.15,2013-03-26 21:55:00,
2013-03-26 16:00:00,54.4,21.1,29.86,NE,45,0.0,3.0,27,0.00,,,0.01,Wunderground v.1.15,2013-03-26 22:00:00,
2013-03-26 16:05:00,54.2,20.9,29.86,NE,38,0.0,3.0,27,0.00,,,0.01,Wunderground v.1.15,2013-03-26 22:05:00,
2013-03-26 16:15:00,53.9,21.5,29.86,East,95,0.0,3.0,28,0.00,,,0.01,Wunderground v.1.15,2013-03-26 22:15:00,
2013-03-26 16:20:00,53.8,21.4,29.85,NE,49,0.0,3.0,28,0.00,,,0.01,Wunderground v.1.15,2013-03-26 22:20:00,
2013-03-26 16:25:00,53.9,21.5,29.85,NE,38,0.0,3.0,28,0.00,,,0.01,Wunderground v.1.15,2013-03-26 22:25:00,
2013-03-26 16:30:00,54.1,21.7,29.85,NE,48,0.0,3.0,28,0.00,,,0.01,Wunderground v.1.15,2013-03-26 22:30:00,
2013-03-26 16:35:00,54.2,20.9,29.85,North,8,0.0,3.0,27,0.00,,,0.01,Wunderground v.1.15,2013-03-26 22:35:00,
2013-03-26 17:45:00,56.0,28.7,29.83,North,349,0.0,3.0,35,0.00,,,0.01,Wunderground v.1.15,2013-03-26 23:45:00,
2013-03-26 17:50:00,54.7,30.2,29.84,NNW,328,0.0,3.0,39,0.00,,,0.01,Wunderground v.1.15,2013-03-26 23:50:00,
2013-03-26 18:00:00,52.3,29.3,29.84,North,350,0.0,3.0,41,0.00,,,0.01,Wunderground v.1.15,2013-03-27 00:00:00,
2013-03-26 18:06:00,50.5,28.8,29.87,WNW,295,0.0,3.0,43,0.00,,,0.01,Wunderground v.1.15,2013-03-27 00:06:00,
2013-03-26 18:15:00,47.9,28.1,29.87,WNW,295,0.0,3.0,46,0.00,,,0.01,Wunderground v.1.15,2013-03-27 00:15:00,
2013-03-26 18:20:00,47.0,27.8,29.91,WNW,295,0.0,3.0,47,0.00,,,0.01,Wunderground v.1.15,2013-03-27 00:20:00,
2013-03-26 18:25:00,46.2,27.6,29.91,NNW,335,0.0,3.0,48,0.00,,,0.01,Wunderground v.1.15,2013-03-27 00:25:00,
2013-03-26 18:35:00,45.4,27.8,29.91,NW,309,0.0,3.0,50,0.00,,,0.01,Wunderground v.1.15,2013-03-27 00:35:00,
2013-03-26 18:40:00,44.2,27.2,29.91,West,278,0.0,3.0,51,0.00,,,0.01,Wunderground v.1.15,2013-03-27 00:40:00,
2013-03-26 18:45:00,43.1,26.7,29.91,West,280,0.0,3.0,52,0.00,,,0.01,Wunderground v.1.15,2013-03-27 00:45:00,
2013-03-26 18:50:00,42.1,26.6,29.94,WSW,247,0.0,3.0,54,0.00,,,0.01,Wunderground v.1.15,2013-03-27 00:50:00,
2013-03-26 19:00:00,40.8,26.7,29.94,WSW,247,0.0,3.0,57,0.00,,,0.01,Wunderground v.1.15,2013-03-27 01:00:00,
2013-03-26 19:06:00,40.3,26.7,29.97,WSW,247,0.0,3.0,58,0.00,,,0.01,Wunderground v.1.15,2013-03-27 01:06:00,
2013-03-26 19:15:00,39.8,26.6,29.97,WSW,247,0.0,3.0,59,0.00,,,0.01,Wunderground v.1.15,2013-03-27 01:15:00,
2013-03-26 19:20:00,39.3,26.2,29.98,WSW,247,0.0,3.0,59,0.00,,,0.01,Wunderground v.1.15,2013-03-27 01:20:00,
2013-03-26 19:25:00,39.1,26.0,29.98,WSW,247,0.0,3.0,59,0.00,,,0.01,Wunderground v.1.15,2013-03-27 01:25:00,
2013-03-26 19:30:00,38.6,25.5,29.98,WSW,247,0.0,3.0,59,0.00,,,0.01,Wunderground v.1.15,2013-03-27 01:30:00,
2013-03-26 19:35:00,38.2,25.5,29.95,WSW,247,0.0,3.0,60,0.00,,,0.01,Wunderground v.1.15,2013-03-27 01:35:00,
2013-03-26 19:45:00,37.6,25.0,29.95,WSW,247,0.0,3.0,60,0.00,,,0.01,Wunderground v.1.15,2013-03-27 01:45:00,
2013-03-26 19:50:00,37.5,24.9,29.95,WSW,247,0.0,3.0,60,0.00,,,0.01,Wunderground v.1.15,2013-03-27 01:50:00,
2013-03-26 19:55:00,37.3,24.7,29.95,WSW,247,0.0,3.0,60,0.00,,,0.01,Wunderground v.1.15,2013-03-27 01:55:00,
2013-03-26 20:00:00,37.0,24.8,29.95,WSW,247,0.0,3.0,61,0.00,,,0.01,Wunderground v.1.15,2013-03-27 02:00:00,
2013-03-26 20:05:00,36.9,25.1,29.97,WSW,247,0.0,3.0,62,0.00,,,0.01,Wunderground v.1.15,2013-03-27 02:05:00,
2013-03-26 20:15:00,36.8,25.0,29.97,WSW,247,0.0,3.0,62,0.00,,,0.01,Wunderground v.1.15,2013-03-27 02:15:00,
2013-03-26 20:25:00,36.6,24.8,29.98,WSW,247,0.0,3.0,62,0.00,,,0.01,Wunderground v.1.15,2013-03-27 02:25:00,
2013-03-26 20:30:00,36.5,24.7,29.98,WSW,247,0.0,3.0,62,0.00,,,0.01,Wunderground v.1.15,2013-03-27 02:30:00,
2013-03-26 20:35:00,36.3,24.9,29.95,WSW,247,0.0,3.0,63,0.00,,,0.01,Wunderground v.1.15,2013-03-27 02:35:00,
2013-03-26 20:45:00,36.0,24.6,29.95,WSW,247,0.0,3.0,63,0.00,,,0.01,Wunderground v.1.15,2013-03-27 02:45:00,
2013-03-26 20:50:00,35.9,24.9,29.96,WSW,247,0.0,3.0,64,0.00,,,0.01,Wunderground v.1.15,2013-03-27 02:50:00,
2013-03-26 20:55:00,35.8,25.2,29.96,WSW,247,0.0,3.0,65,0.00,,,0.01,Wunderground v.1.15,2013-03-27 02:55:00,
2013-03-26 21:00:00,35.8,25.2,29.96,WSW,247,0.0,3.0,65,0.00,,,0.01,Wunderground v.1.15,2013-03-27 03:00:00,
2013-03-26 21:05:00,35.6,25.0,29.97,WSW,247,0.0,3.0,65,0.00,,,0.01,Wunderground v.1.15,2013-03-27 03:05:00,
2013-03-26 21:15:00,35.5,24.9,29.97,WSW,247,0.0,3.0,65,0.00,,,0.01,Wunderground v.1.15,2013-03-27 03:15:00,
2013-03-26 21:20:00,35.3,24.7,29.97,WSW,247,0.0,3.0,65,0.00,,,0.01,Wunderground v.1.15,2013-03-27 03:20:00,
2013-03-26 21:25:00,35.2,24.6,29.97,WSW,247,0.0,3.0,65,0.00,,,0.01,Wunderground v.1.15,2013-03-27 03:25:00,
2013-03-26 21:30:00,35.0,24.4,29.97,WSW,247,0.0,3.0,65,0.00,,,0.01,Wunderground v.1.15,2013-03-27 03:30:00,
2013-03-26 21:35:00,34.9,24.7,29.94,WSW,247,0.0,3.0,66,0.00,,,0.01,Wunderground v.1.15,2013-03-27 03:35:00,
2013-03-26 21:45:00,34.6,24.4,29.94,WSW,247,0.0,3.0,66,0.00,,,0.01,Wunderground v.1.15,2013-03-27 03:45:00,
2013-03-26 21:50:00,34.4,24.2,29.93,WSW,247,0.0,3.0,66,0.00,,,0.01,Wunderground v.1.15,2013-03-27 03:50:00,
2013-03-26 21:55:00,34.3,24.1,29.93,WSW,247,0.0,3.0,66,0.00,,,0.01,Wunderground v.1.15,2013-03-27 03:55:00,
2013-03-26 22:00:00,34.1,23.9,29.93,WSW,247,0.0,3.0,66,0.00,,,0.01,Wunderground v.1.15,2013-03-27 04:00:00,
2013-03-26 22:06:00,33.8,23.6,29.95,WSW,247,0.0,3.0,66,0.00,,,0.01,Wunderground v.1.15,2013-03-27 04:06:00,
2013-03-26 22:10:00,33.7,23.5,29.95,WSW,247,0.0,3.0,66,0.00,,,0.01,Wunderground v.1.15,2013-03-27 04:10:00,
2013-03-26 22:15:00,33.4,23.6,29.95,WSW,247,0.0,3.0,67,0.00,,,0.01,Wunderground v.1.15,2013-03-27 04:15:00,
2013-03-26 22:25:00,32.9,23.1,29.96,WSW,247,0.0,3.0,67,0.00,,,0.01,Wunderground v.1.15,2013-03-27 04:25:00,
2013-03-26 22:30:00,32.7,22.9,29.96,WSW,247,0.0,3.0,67,0.00,,,0.01,Wunderground v.1.15,2013-03-27 04:30:00,
2013-03-26 22:35:00,32.4,22.7,29.92,WSW,247,0.0,3.0,67,0.00,,,0.01,Wunderground v.1.15,2013-03-27 04:35:00,
2013-03-26 22:40:00,32.2,22.5,29.92,WSW,247,0.0,3.0,67,0.00,,,0.01,Wunderground v.1.15,2013-03-27 04:40:00,
2013-03-26 22:45:00,31.9,22.5,29.92,WSW,247,0.0,3.0,68,0.00,,,0.01,Wunderground v.1.15,2013-03-27 04:45:00,
2013-03-26 22:55:00,31.8,22.8,29.93,WSW,247,0.0,3.0,69,0.00,,,0.01,Wunderground v.1.15,2013-03-27 04:55:00,
2013-03-26 23:00:00,31.6,22.6,29.93,WSW,247,0.0,3.0,69,0.00,,,0.01,Wunderground v.1.15,2013-03-27 05:00:00,
2013-03-26 23:06:00,31.5,22.5,29.93,WSW,247,0.0,3.0,69,0.00,,,0.01,Wunderground v.1.15,2013-03-27 05:06:00,
2013-03-26 23:15:00,31.2,22.2,29.93,WSW,247,0.0,3.0,69,0.00,,,0.01,Wunderground v.1.15,2013-03-27 05:15:00,
2013-03-26 23:20:00,30.9,21.9,29.93,WSW,247,0.0,3.0,69,0.00,,,0.01,Wunderground v.1.15,2013-03-27 05:20:00,
2013-03-26 23:30:00,30.6,21.6,29.93,WSW,247,0.0,3.0,69,0.00,,,0.01,Wunderground v.1.15,2013-03-27 05:30:00,
2013-03-26 23:35:00,30.3,21.3,29.92,WSW,247,0.0,3.0,69,0.00,,,0.01,Wunderground v.1.15,2013-03-27 05:35:00,
2013-03-26 23:40:00,30.1,21.2,29.92,WSW,247,0.0,3.0,69,0.00,,,0.01,Wunderground v.1.15,2013-03-27 05:40:00,
2013-03-26 23:45:00,30.0,21.1,29.92,WSW,247,0.0,3.0,69,0.00,,,0.01,Wunderground v.1.15,2013-03-27 05:45:00,
2013-03-26 23:55:00,29.7,21.1,29.92,WSW,247,0.0,3.0,70,0.00,,,0.01,Wunderground v.1.15,2013-03-27 05:55:00,